Time,TemperatureF,DewpointF,PressureIn,WindDirection,WindDirectionDegrees,WindSpeedMPH,WindSpeedGustMPH,Humidity,HourlyPrecipIn,Conditions,Clouds,dailyrainin,SoftwareType,DateUTC
2013-03-09 00:02:00,35.0,-99.9,-100.00,South,175,16.0,-999.0,0,-99.99,,,-99.99,,2013-03-09 06:02:00,
2013-03-09 00:11:00,35.0,-99.9,-100.00,South,179,13.0,-999.0,0,-99.99,,,-99.99,,2013-03-09 06:11:00,
2013-03-09 00:22:00,35.0,-99.9,-100.00,SSE,157,13.0,-999.0,0,-99.99,,,-99.99,,2013-03-09 06:22:00,
2013-03-09 00:32:00,35.0,-99.9,-100.00,SSE,162,15.0,-999.0,0,-99.99,,,-99.99,,2013-03-09 06:32:00,
2013-03-09 00:42:00,35.0,-99.9,-100.00,SSW,194,10.0,-999.0,0,-99.99,,,-99.99,,2013-03-09 06:42:00,
2013-03-09 00:52:00,35.0,-99.9,-100.00,South,181,13.0,-999.0,0,-99.99,,,-99.99,,2013-03-09 06:52:00,
2013-03-09 01:01:00,35.0,-99.9,-100.00,SSW,193,13.0,-999.0,0,-99.99,,,-99.99,,2013-03-09 07:01:00,
2013-03-09 01:11:00,35.0,-99.9,-100.00,SSE,164,14.0,-999.0,0,-99.99,,,-99.99,,2013-03-09 07:11:00,
2013-03-09 01:22:00,35.0,-99.9,-100.00,SSE,156,14.0,-999.0,0,-99.99,,,-99.99,,2013-03-09 07:22:00,
2013-03-09 01:32:00,35.0,-99.9,-100.00,South,187,10.0,-999.0,0,-99.99,,,-99.99,,2013-03-09 07:32:00,
2013-03-09 01:42:00,35.0,-99.9,-100.00,South,187,10.0,-999.0,0,-99.99,,,-99.99,,2013-03-09 07:42:00,
2013-03-09 01:52:00,35.0,-99.9,-100.00,South,187,12.0,-999.0,0,-99.99,,,-99.99,,2013-03-09 07:52:00,
2013-03-09 02:01:00,35.0,-99.9,-100.00,South,187,12.0,-999.0,0,-99.99,,,-99.99,,2013-03-09 08:01:00,
2013-03-09 02:11:00,35.0,-99.9,-100.00,South,175,16.0,-999.0,0,-99.99,,,-99.99,,2013-03-09 08:11:00,
2013-03-09 02:22:00,35.0,-99.9,-100.00,SSE,159,12.0,-999.0,0,-99.99,,,-99.99,,2013-03-09 08:22:00,
2013-03-09 02:32:00,35.0,-99.9,-100.00,SSE,152,13.0,-999.0,0,-99.99,,,-99.99,,2013-03-09 08:32:00,
2013-03-09 02:42:00,35.0,-99.9,-100.00,SSE,167,14.0,-999.0,0,-99.99,,,-99.99,,2013-03-09 08:42:00,
2013-03-09 02:52:00,34.0,-99.9,-100.00,South,177,16.0,-999.0,0,-99.99,,,-99.99,,2013-03-09 08:52:00,
2013-03-09 03:02:00,34.0,-99.9,-100.00,SSE,161,15.0,-999.0,0,-99.99,,,-99.99,,2013-03-09 09:02:00,
2013-03-09 03:12:00,34.0,-99.9,-100.00,SSE,161,10.0,-999.0,0,-99.99,,,-99.99,,2013-03-09 09:12:00,
2013-03-09 03:22:00,34.0,-99.9,-100.00,SSE,152,14.0,-999.0,0,-99.99,,,-99.99,,2013-03-09 09:22:00,
2013-03-09 03:32:00,34.0,-99.9,-100.00,South,169,13.0,-999.0,0,-99.99,,,-99.99,,2013-03-09 09:32:00,
2013-03-09 03:42:00,34.0,-99.9,-100.00,South,169,13.0,-999.0,0,-99.99,,,-99.99,,2013-03-09 09:42:00,
2013-03-09 03:52:00,34.0,-99.9,-100.00,SSE,155,14.0,-999.0,0,-99.99,,,-99.99,,2013-03-09 09:52:00,
2013-03-09 04:01:00,34.0,-99.9,-100.00,SSE,152,12.0,-999.0,0,-99.99,,,-99.99,,2013-03-09 10:01:00,
2013-03-09 04:11:00,34.0,-99.9,-100.00,South,183,12.0,-999.0,0,-99.99,,,-99.99,,2013-03-09 10:11:00,
2013-03-09 04:22:00,34.0,-99.9,-100.00,South,169,11.0,-999.0,0,-99.99,,,-99.99,,2013-03-09 10:22:00,
2013-03-09 04:32:00,34.0,-99.9,-100.00,SSE,168,9.0,-999.0,0,-99.99,,,-99.99,,2013-03-09 10:32:00,
2013-03-09 04:42:00,34.0,-99.9,-100.00,South,177,10.0,-999.0,0,-99.99,,,-99.99,,2013-03-09 10:42:00,
2013-03-09 04:52:00,35.0,-99.9,-100.00,SSE,161,13.0,-999.0,0,-99.99,,,-99.99,,2013-03-09 10:52:00,
2013-03-09 05:01:00,35.0,-99.9,-100.00,SSW,205,9.0,-999.0,0,-99.99,,,-99.99,,2013-03-09 11:01:00,
2013-03-09 05:11:00,35.0,-99.9,-100.00,SSE,166,6.0,-999.0,0,-99.99,,,-99.99,,2013-03-09 11:11:00,
2013-03-09 05:22:00,35.0,-99.9,-100.00,SSE,158,5.0,-999.0,0,-99.99,,,-99.99,,2013-03-09 11:22:00,
2013-03-09 05:32:00,35.0,-99.9,-100.00,SE,134,7.0,-999.0,0,-99.99,,,-99.99,,2013-03-09 11:32:00,
2013-03-09 05:42:00,35.0,-99.9,-100.00,SE,127,8.0,-999.0,0,-99.99,,,-99.99,,2013-03-09 11:42:00,
2013-03-09 05:52:00,35.0,-99.9,-100.00,East,88,4.0,-999.0,0,-99.99,,,-99.99,,2013-03-09 11:52:00,
2013-03-09 06:02:00,35.0,-99.9,-100.00,ESE,104,3.0,-999.0,0,-99.99,,,-99.99,,2013-03-09 12:02:00,
2013-03-09 06:12:00,35.0,-99.9,-100.00,ENE,69,3.0,-999.0,0,-99.99,,,-99.99,,2013-03-09 12:12:00,
2013-03-09 06:22:00,35.0,-99.9,-100.00,ENE,74,4.0,-999.0,0,-99.99,,,-99.99,,2013-03-09 12:22:00,
2013-03-09 06:32:00,35.0,-99.9,-100.00,East,83,4.0,-999.0,0,-99.99,,,-99.99,,2013-03-09 12:32:00,
2013-03-09 06:42:00,35.0,-99.9,-100.00,ENE,75,5.0,-999.0,0,-99.99,,,-99.99,,2013-03-09 12:42:00,
2013-03-09 06:53:00,35.0,-99.9,-100.00,ENE,72,6.0,-999.0,0,-99.99,,,-99.99,,2013-03-09 12:53:00,
2013-03-09 07:02:00,35.0,-99.9,-100.00,ENE,73,4.0,-999.0,0,-99.99,,,-99.99,,2013-03-09 13:02:00,
2013-03-09 07:11:00,35.0,-99.9,-100.00,ENE,74,6.0,-999.0,0,-99.99,,,-99.99,,2013-03-09 13:11:00,
2013-03-09 07:22:00,34.0,-99.9,-100.00,NE,52,4.0,-999.0,0,-99.99,,,-99.99,,2013-03-09 13:22:00,
2013-03-09 07:32:00,35.0,-99.9,-100.00,ENE,70,5.0,-999.0,0,-99.99,,,-99.99,,2013-03-09 13:32:00,
2013-03-09 07:42:00,34.0,-99.9,-100.00,ENE,68,6.0,-999.0,0,-99.99,,,-99.99,,2013-03-09 13:42:00,
2013-03-09 07:52:00,35.0,-99.9,-100.00,ENE,62,6.0,-999.0,0,-99.99,,,-99.99,,2013-03-09 13:52:00,
2013-03-09 08:02:00,35.0,-99.9,-100.00,ENE,62,6.0,-999.0,0,-99.99,,,-99.99,,2013-03-09 14:02:00,
2013-03-09 08:11:00,34.0,-99.9,-100.00,East,80,5.0,-999.0,0,-99.99,,,-99.99,,2013-03-09 14:11:00,
2013-03-09 08:22:00,35.0,-99.9,-100.00,ESE,120,7.0,-999.0,0,-99.99,,,-99.99,,2013-03-09 14:22:00,
2013-03-09 08:32:00,35.0,-99.9,-100.00,SSE,160,6.0,-999.0,0,-99.99,,,-99.99,,2013-03-09 14:32:00,
2013-03-09 08:42:00,35.0,-99.9,-100.00,SE,145,9.0,-999.0,0,-99.99,,,-99.99,,2013-03-09 14:42:00,
2013-03-09 08:52:00,35.0,-99.9,-100.00,ESE,107,8.0,-999.0,0,-99.99,,,-99.99,,2013-03-09 14:52:00,
2013-03-09 09:02:00,35.0,-99.9,-100.00,ESE,107,8.0,-999.0,0,-99.99,,,-99.99,,2013-03-09 15:02:00,
2013-03-09 09:12:00,35.0,-99.9,-100.00,East,89,6.0,-999.0,0,-99.99,,,-99.99,,2013-03-09 15:12:00,
2013-03-09 09:22:00,35.0,-99.9,-100.00,ESE,108,7.0,-999.0,0,-99.99,,,-99.99,,2013-03-09 15:22:00,
2013-03-09 09:32:00,35.0,-99.9,-100.00,East,89,5.0,-999.0,0,-99.99,,,-99.99,,2013-03-09 15:32:00,
2013-03-09 09:42:00,35.0,-99.9,-100.00,ESE,120,7.0,-999.0,0,-99.99,,,-99.99,,2013-03-09 15:42:00,
2013-03-09 09:52:00,35.0,-99.9,-100.00,South,173,9.0,-999.0,0,-99.99,,,-99.99,,2013-03-09 15:52:00,
2013-03-09 10:02:00,36.0,-99.9,-100.00,SSE,167,7.0,-999.0,0,-99.99,,,-99.99,,2013-03-09 16:02:00,
2013-03-09 10:12:00,36.0,-99.9,-100.00,SSE,166,7.0,-999.0,0,-99.99,,,-99.99,,2013-03-09 16:12:00,
2013-03-09 10:22:00,36.0,-99.9,-100.00,SE,141,10.0,-999.0,0,-99.99,,,-99.99,,2013-03-09 16:22:00,
2013-03-09 10:32:00,36.0,-99.9,-100.00,South,169,8.0,-999.0,0,-99.99,,,-99.99,,2013-03-09 16:32:00,
2013-03-09 10:42:00,36.0,-99.9,-100.00,SE,137,9.0,-999.0,0,-99.99,,,-99.99,,2013-03-09 16:42:00,
2013-03-09 10:52:00,36.0,-99.9,-100.00,SE,133,9.0,-999.0,0,-99.99,,,-99.99,,2013-03-09 16:52:00,
2013-03-09 11:01:00,36.0,-99.9,-100.00,SE,130,6.0,-999.0,0,-99.99,,,-99.99,,2013-03-09 17:01:00,
2013-03-09 11:11:00,36.0,-99.9,-100.00,East,92,5.0,-999.0,0,-99.99,,,-99.99,,2013-03-09 17:11:00,
2013-03-09 11:22:00,36.0,-99.9,-100.00,ESE,115,6.0,-999.0,0,-99.99,,,-99.99,,2013-03-09 17:22:00,
2013-03-09 11:32:00,36.0,-99.9,-100.00,ESE,118,4.0,-999.0,0,-99.99,,,-99.99,,2013-03-09 17:32:00,
2013-03-09 11:42:00,36.0,-99.9,-100.00,SE,135,7.0,-999.0,0,-99.99,,,-99.99,,2013-03-09 17:42:00,
2013-03-09 11:52:00,36.0,-99.9,-100.00,NE,45,4.0,-999.0,0,-99.99,,,-99.99,,2013-03-09 17:52:00,
2013-03-09 12:02:00,36.0,-99.9,-100.00,NE,42,5.0,-999.0,0,-99.99,,,-99.99,,2013-03-09 18:02:00,
2013-03-09 12:11:00,36.0,-99.9,-100.00,ENE,77,6.0,-999.0,0,-99.99,,,-99.99,,2013-03-09 18:11:00,
2013-03-09 12:22:00,36.0,-99.9,-100.00,ENE,65,3.0,-999.0,0,-99.99,,,-99.99,,2013-03-09 18:22:00,
2013-03-09 12:32:00,36.0,-99.9,-100.00,North,0,0.0,-999.0,0,-99.99,,,-99.99,,2013-03-09 18:32:00,
2013-03-09 12:42:00,36.0,-99.9,-100.00,North,0,0.0,-999.0,0,-99.99,,,-99.99,,2013-03-09 18:42:00,
2013-03-09 12:52:00,36.0,-99.9,-100.00,NNW,329,3.0,-999.0,0,-99.99,,,-99.99,,2013-03-09 18:52:00,
2013-03-09 13:02:00,35.0,-99.9,-100.00,North,-999,12.0,-999.0,0,-99.99,,,-99.99,,2013-03-09 19:02:00,
2013-03-09 13:12:00,36.0,-99.9,-100.00,South,178,6.0,-999.0,0,-99.99,,,-99.99,,2013-03-09 19:12:00,
2013-03-09 13:22:00,36.0,-99.9,-100.00,North,-999,7.0,-999.0,0,-99.99,,,-99.99,,2013-03-09 19:22:00,
2013-03-09 13:32:00,36.0,-99.9,-100.00,NNE,16,7.0,-999.0,0,-99.99,,,-99.99,,2013-03-09 19:32:00,
2013-03-09 13:42:00,36.0,-99.9,-100.00,North,11,7.0,-999.0,0,-99.99,,,-99.99,,2013-03-09 19:42:00,
2013-03-09 13:52:00,36.0,-99.9,-100.00,North,-999,10.0,-999.0,0,-99.99,,,-99.99,,2013-03-09 19:52:00,
2013-03-09 14:02:00,36.0,-99.9,-100.00,North,-999,10.0,-999.0,0,-99.99,,,-99.99,,2013-03-09 20:02:00,
2013-03-09 14:12:00,36.0,-99.9,-100.00,North,-999,10.0,-999.0,0,-99.99,,,-99.99,,2013-03-09 20:12:00,
2013-03-09 14:22:00,36.0,-99.9,-100.00,East,92,11.0,-999.0,0,-99.99,,,-99.99,,2013-03-09 20:22:00,
2013-03-09 14:32:00,36.0,-99.9,-100.00,North,9,11.0,-999.0,0,-99.99,,,-99.99,,2013-03-09 20:32:00,
2013-03-09 14:42:00,36.0,-99.9,-100.00,North,6,17.0,-999.0,0,-99.99,,,-99.99,,2013-03-09 20:42:00,
2013-03-09 14:53:00,36.0,-99.9,-100.00,NNE,20,13.0,-999.0,0,-99.99,,,-99.99,,2013-03-09 20:53:00,
2013-03-09 15:02:00,36.0,-99.9,-100.00,NNE,20,13.0,-999.0,0,-99.99,,,-99.99,,2013-03-09 21:02:00,
2013-03-09 15:12:00,36.0,-99.9,-100.00,South,173,13.0,-999.0,0,-99.99,,,-99.99,,2013-03-09 21:12:00,
2013-03-09 15:22:00,36.0,-99.9,-100.00,South,175,14.0,-999.0,0,-99.99,,,-99.99,,2013-03-09 21:22:00,
2013-03-09 15:32:00,36.0,-99.9,-100.00,South,175,14.0,-999.0,0,-99.99,,,-99.99,,2013-03-09 21:32:00,
2013-03-09 15:42:00,35.0,-99.9,-100.00,West,259,11.0,-999.0,0,-99.99,,,-99.99,,2013-03-09 21:42:00,
2013-03-09 15:52:00,34.0,-99.9,-100.00,SSE,160,15.0,-999.0,0,-99.99,,,-99.99,,2013-03-09 21:52:00,
2013-03-09 16:02:00,34.0,-99.9,-100.00,North,-999,17.0,-999.0,0,-99.99,,,-99.99,,2013-03-09 22:02:00,
2013-03-09 16:12:00,34.0,-99.9,-100.00,North,-999,22.0,-999.0,0,-99.99,,,-99.99,,2013-03-09 22:12:00,
2013-03-09 16:22:00,34.0,-99.9,-100.00,North,-999,19.0,-999.0,0,-99.99,,,-99.99,,2013-03-09 22:22:00,
2013-03-09 16:32:00,34.0,-99.9,-100.00,ESE,107,20.0,-999.0,0,-99.99,,,-99.99,,2013-03-09 22:32:00,
2013-03-09 16:42:00,34.0,-99.9,-100.00,North,-999,18.0,-999.0,0,-99.99,,,-99.99,,2013-03-09 22:42:00,
2013-03-09 16:52:00,34.0,-99.9,-100.00,South,173,14.0,-999.0,0,-99.99,,,-99.99,,2013-03-09 22:52:00,
2013-03-09 17:02:00,34.0,-99.9,-100.00,NNW,341,18.0,-999.0,0,-99.99,,,-99.99,,2013-03-09 23:02:00,
2013-03-09 17:11:00,34.0,-99.9,-100.00,North,-999,15.0,-999.0,0,-99.99,,,-99.99,,2013-03-09 23:11:00,
2013-03-09 17:22:00,34.0,-99.9,-100.00,West,260,19.0,-999.0,0,-99.99,,,-99.99,,2013-03-09 23:22:00,
2013-03-09 17:32:00,34.0,-99.9,-100.00,East,88,16.0,-999.0,0,-99.99,,,-99.99,,2013-03-09 23:32:00,
2013-03-09 17:42:00,34.0,-99.9,-100.00,North,7,20.0,-999.0,0,-99.99,,,-99.99,,2013-03-09 23:42:00,
2013-03-09 17:52:00,34.0,-99.9,-100.00,North,-999,22.0,-999.0,0,-99.99,,,-99.99,,2013-03-09 23:52:00,
2013-03-09 18:02:00,33.0,-99.9,-100.00,North,-999,19.0,-999.0,0,-99.99,,,-99.99,,2013-03-10 00:02:00,
2013-03-09 18:12:00,33.0,-99.9,-100.00,North,-999,20.0,-999.0,0,-99.99,,,-99.99,,2013-03-10 00:12:00,
2013-03-09 18:22:00,33.0,-99.9,-100.00,North,-999,19.0,-999.0,0,-99.99,,,-99.99,,2013-03-10 00:22:00,
2013-03-09 18:32:00,33.0,-99.9,-100.00,West,259,27.0,-999.0,0,-99.99,,,-99.99,,2013-03-10 00:32:00,
2013-03-09 18:43:00,33.0,-99.9,-100.00,East,88,20.0,-999.0,0,-99.99,,,-99.99,,2013-03-10 00:43:00,
2013-03-09 18:52:00,33.0,-99.9,-100.00,South,183,16.0,-999.0,0,-99.99,,,-99.99,,2013-03-10 00:52:00,
2013-03-09 19:02:00,33.0,-99.9,-100.00,North,-999,26.0,-999.0,0,-99.99,,,-99.99,,2013-03-10 01:02:00,
2013-03-09 19:12:00,32.0,-99.9,-100.00,North,-999,24.0,-999.0,0,-99.99,,,-99.99,,2013-03-10 01:12:00,
2013-03-09 19:22:00,32.0,-99.9,-100.00,North,-999,31.0,-999.0,0,-99.99,,,-99.99,,2013-03-10 01:22:00,
2013-03-09 19:32:00,32.0,-99.9,-100.00,North,-999,32.0,-999.0,0,-99.99,,,-99.99,,2013-03-10 01:32:00,
2013-03-09 19:42:00,32.0,-99.9,-100.00,North,-999,28.0,-999.0,0,-99.99,,,-99.99,,2013-03-10 01:42:00,
2013-03-09 19:52:00,31.0,-99.9,-100.00,North,-999,20.0,-999.0,0,-99.99,,,-99.99,,2013-03-10 01:52:00,
2013-03-09 20:02:00,31.0,-99.9,-100.00,North,-999,19.0,-999.0,0,-99.99,,,-99.99,,2013-03-10 02:02:00,
2013-03-09 20:11:00,31.0,-99.9,-100.00,North,-999,26.0,-999.0,0,-99.99,,,-99.99,,2013-03-10 02:11:00,
2013-03-09 20:22:00,31.0,-99.9,-100.00,North,-999,27.0,-999.0,0,-99.99,,,-99.99,,2013-03-10 02:22:00,
2013-03-09 20:32:00,31.0,-99.9,-100.00,North,-999,25.0,-999.0,0,-99.99,,,-99.99,,2013-03-10 02:32:00,
2013-03-09 20:42:00,31.0,-99.9,-100.00,North,-999,21.0,-999.0,0,-99.99,,,-99.99,,2013-03-10 02:42:00,
2013-03-09 20:52:00,30.0,-99.9,-100.00,West,262,26.0,-999.0,0,-99.99,,,-99.99,,2013-03-10 02:52:00,
2013-03-09 21:02:00,30.0,-99.9,-100.00,North,-999,25.0,-999.0,0,-99.99,,,-99.99,,2013-03-10 03:02:00,
2013-03-09 21:12:00,30.0,-99.9,-100.00,North,-999,20.0,-999.0,0,-99.99,,,-99.99,,2013-03-10 03:12:00,
2013-03-09 21:23:00,30.0,-99.9,-100.00,North,-999,20.0,-999.0,0,-99.99,,,-99.99,,2013-03-10 03:23:00,
2013-03-09 21:32:00,30.0,-99.9,-100.00,North,-999,25.0,-999.0,0,-99.99,,,-99.99,,2013-03-10 03:32:00,
2013-03-09 21:42:00,30.0,-99.9,-100.00,West,259,33.0,-999.0,0,-99.99,,,-99.99,,2013-03-10 03:42:00,
2013-03-09 21:52:00,30.0,-99.9,-100.00,West,260,26.0,-999.0,0,-99.99,,,-99.99,,2013-03-10 03:52:00,
2013-03-09 22:02:00,30.0,-99.9,-100.00,North,-999,24.0,-999.0,0,-99.99,,,-99.99,,2013-03-10 04:02:00,
2013-03-09 22:11:00,30.0,-99.9,-100.00,East,89,25.0,-999.0,0,-99.99,,,-99.99,,2013-03-10 04:11:00,
2013-03-09 22:22:00,30.0,-99.9,-100.00,North,-999,19.0,-999.0,0,-99.99,,,-99.99,,2013-03-10 04:22:00,
2013-03-09 22:32:00,30.0,-99.9,-100.00,South,174,26.0,-999.0,0,-99.99,,,-99.99,,2013-03-10 04:32:00,
2013-03-09 22:42:00,30.0,-99.9,-100.00,NNE,31,27.0,-999.0,0,-99.99,,,-99.99,,2013-03-10 04:42:00,
2013-03-09 22:52:00,30.0,-99.9,-100.00,NNW,332,25.0,-999.0,0,-99.99,,,-99.99,,2013-03-10 04:52:00,
2013-03-09 23:02:00,30.0,-99.9,-100.00,NNW,332,25.0,-999.0,0,-99.99,,,-99.99,,2013-03-10 05:02:00,
2013-03-09 23:11:00,31.0,-99.9,-100.00,SSE,162,29.0,-999.0,0,-99.99,,,-99.99,,2013-03-10 05:11:00,
2013-03-09 23:22:00,31.0,-99.9,-100.00,West,262,28.0,-999.0,0,-99.99,,,-99.99,,2013-03-10 05:22:00,
2013-03-09 23:32:00,31.0,-99.9,-100.00,NNW,330,27.0,-999.0,0,-99.99,,,-99.99,,2013-03-10 05:32:00,
2013-03-09 23:42:00,31.0,-99.9,-100.00,North,-999,23.0,-999.0,0,-99.99,,,-99.99,,2013-03-10 05:42:00,
2013-03-09 23:52:00,30.0,-99.9,-100.00,North,-999,32.0,-999.0,0,-99.99,,,-99.99,,2013-03-10 05:52:00,